Weather History for Las Vegas, NM

Change the Weather History Date:

Tuesday, February 11, 2014

  Actual Average Record
Temperature  
Mean Temperature 32 °F -  
Max Temperature 46 °F 48 °F 73 °F (1951)
Min Temperature 17 °F 18 °F -13 °F (1948)
Degree Days  
Heating Degree Days 34    
Moisture  
Dew Point 20 °F    
Average Humidity 77    
Maximum Humidity 96    
Minimum Humidity 34    
Precipitation  
Precipitation 0.00 in - - ()
Sea Level Pressure  
Sea Level Pressure 30.08 in    
Wind  
Wind Speed 6 mph (East)    
Max Wind Speed 22 mph    
Max Gust Speed 29 mph    
Visibility 8 miles    
Events Fog    
Averages and records for this station are not official NWS values.
T = Trace of Precipitation, MM = Missing Value Source: NWS Daily Summary

Daily Weather History Graph

Daily Weather History Graph

Search for Another Location

Airport:

Trip Planner

Search our weather history database for the weather conditions in past years. The results will help you decide how hot, cold, wet, or windy it might be!

Date:

Astronomy

Feb. 11, 2014 Rise Set
Actual Time 6:51 AM MST 5:38 PM MST
Civil Twilight 6:25 AM MST 6:04 PM MST
Nautical Twilight 5:55 AM MST 6:34 PM MST
Astronomical Twilight 5:25 AM MST 7:04 PM MST
Moon 3:03 PM MST (2/11) 4:27 AM MST (2/11)
Length of Visible Light 11h 39m
Length of Day
10h 47m
Waxing Gibbous, 91% of the Moon is Illuminated
Feb 11
Waxing Gibbous
Feb 14
Full
Feb 22
Last Quarter
Mar 1
New
Mar 8
First Quarter

Hourly Weather History & Observations

Time (MST) Temp. Windchill Dew Point Humidity Pressure Visibility Wind Dir Wind Speed Gust Speed Precip Events Conditions
12:53 AM 24.1 °F - 19.9 °F 84% 29.99 in 9.0 mi Calm Calm - N/A   Overcast
1:53 AM 19.9 °F 8.6 °F 17.1 °F 89% 30.02 in 8.0 mi South 10.4 mph - N/A   Mostly Cloudy
2:21 AM 18.0 °F 6.9 °F 15.1 °F 88% 30.08 in 8.0 mi SE 9.2 mph - N/A   Mostly Cloudy
2:39 AM 17.1 °F 7.6 °F 15.1 °F 92% 30.08 in 8.0 mi SSE 6.9 mph - N/A   Overcast
2:53 AM 18.0 °F 9.8 °F 15.1 °F 88% 30.02 in 7.0 mi South 5.8 mph - N/A   Overcast
3:11 AM 19.9 °F 12.1 °F 17.1 °F 89% 30.09 in 6.0 mi ENE 5.8 mph - N/A   Overcast
3:28 AM 19.9 °F 13.4 °F 18.0 °F 92% 30.09 in 8.0 mi NE 4.6 mph - N/A   Overcast
3:37 AM 21.0 °F 14.6 °F 18.0 °F 88% 30.09 in 8.0 mi NE 4.6 mph - N/A   Overcast
3:45 AM 19.9 °F 14.9 °F 17.1 °F 89% 30.10 in 9.0 mi NNE 3.5 mph - N/A   Overcast
3:53 AM 19.9 °F 14.9 °F 17.1 °F 89% 30.07 in 10.0 mi NNW 3.5 mph - N/A   Overcast
4:53 AM 21.0 °F 13.4 °F 18.0 °F 88% 30.10 in 8.0 mi North 5.8 mph - N/A   Overcast
5:13 AM 21.9 °F 14.5 °F 18.0 °F 85% 30.10 in 9.0 mi North 5.8 mph - N/A   Overcast
5:40 AM 23.0 °F 15.8 °F 19.9 °F 88% 30.11 in 8.0 mi North 5.8 mph - N/A   Overcast
5:53 AM 23.0 °F 15.8 °F 21.0 °F 92% 30.12 in 6.0 mi North 5.8 mph - N/A   Overcast
6:24 AM 23.0 °F 13.9 °F 21.0 °F 92% 30.11 in 1.8 mi NNE 8.1 mph - N/A   Overcast
6:38 AM 23.0 °F 13.9 °F 21.9 °F 96% 30.12 in 2.5 mi NE 8.1 mph - N/A   Overcast
6:48 AM 23.0 °F 15.8 °F 21.2 °F 93% 30.13 in 3.0 mi ENE 5.8 mph - N/A   Overcast
6:53 AM 23.0 °F 17.0 °F 21.9 °F 96% 30.19 in 2.5 mi East 4.6 mph - N/A   Overcast
7:02 AM 23.0 °F 18.4 °F 21.9 °F 96% 30.13 in 1.5 mi NE 3.5 mph - N/A   Overcast
7:19 AM 24.1 °F - 21.9 °F 91% 30.14 in 0.2 mi Calm Calm - N/A Fog Light Freezing Fog
7:46 AM 24.1 °F 17.0 °F 23.0 °F 96% 30.14 in 1.0 mi NE 5.8 mph - N/A   Overcast
7:53 AM 25.0 °F 17.1 °F 23.0 °F 92% 30.19 in 2.5 mi NE 6.9 mph - N/A   Overcast
8:01 AM 25.0 °F 19.3 °F 23.0 °F 92% 30.14 in 4.0 mi NE 4.6 mph - N/A   Overcast
8:18 AM 25.0 °F - 23.0 °F 92% 30.14 in 1.8 mi Calm Calm - N/A   Overcast
8:26 AM 25.0 °F - 24.1 °F 96% 30.14 in 3.0 mi Calm Calm - N/A   Overcast
8:53 AM 26.1 °F 20.5 °F 23.0 °F 88% 30.20 in 10.0 mi North 4.6 mph - N/A   Overcast
9:05 AM 26.1 °F 21.9 °F 24.1 °F 92% 30.14 in 10.0 mi WNW 3.5 mph - N/A   Overcast
9:23 AM 26.1 °F - 24.1 °F 92% 30.14 in 10.0 mi Calm Calm - N/A   Mostly Cloudy
9:50 AM 28.4 °F 22.2 °F 24.8 °F 86% 30.15 in 10.0 mi SSW 5.8 mph - N/A   Scattered Clouds
9:53 AM 30.0 °F 24.1 °F 25.0 °F 82% 30.19 in 10.0 mi SSW 5.8 mph - N/A   Mostly Cloudy
10:10 AM 30.9 °F 25.2 °F 25.0 °F 79% 30.14 in 10.0 mi SSE 5.8 mph - N/A   Scattered Clouds
10:53 AM 35.1 °F 27.9 °F 25.0 °F 67% 30.14 in 10.0 mi SSE 9.2 mph - N/A   Clear
11:53 AM 39.9 °F 32.5 °F 23.0 °F 51% 30.07 in 10.0 mi South 12.7 mph - N/A   Clear
12:53 PM 44.1 °F 36.8 °F 19.9 °F 38% 30.00 in 10.0 mi SSW 16.1 mph 24.2 mph N/A   Clear
1:53 PM 44.1 °F 36.2 °F 21.0 °F 40% 29.98 in 10.0 mi South 18.4 mph - N/A   Clear
2:53 PM 46.9 °F - 19.9 °F 34% 29.94 in 10.0 mi SSW 18.4 mph 28.8 mph N/A   Clear
3:53 PM 46.0 °F 38.0 °F 19.0 °F 34% 29.92 in 10.0 mi SSW 21.9 mph - N/A   Clear
4:53 PM 45.0 °F 36.9 °F 21.0 °F 39% 29.90 in 10.0 mi SW 20.7 mph - N/A   Clear
5:53 PM 39.0 °F 31.4 °F 19.9 °F 46% 29.96 in 10.0 mi SSW 12.7 mph - N/A   Clear
6:53 PM 37.0 °F 32.4 °F 19.0 °F 48% 30.01 in 10.0 mi West 5.8 mph - N/A   Clear
7:53 PM 33.1 °F 25.5 °F 18.0 °F 54% 30.01 in 10.0 mi South 9.2 mph - N/A   Clear
8:53 PM 33.1 °F 25.5 °F 16.0 °F 50% 30.00 in 10.0 mi SSW 9.2 mph - N/A   Clear
9:53 PM 30.9 °F 27.5 °F 16.0 °F 54% 30.01 in 10.0 mi East 3.5 mph - N/A   Clear
10:53 PM 32.0 °F 26.4 °F 14.0 °F 48% 30.00 in 10.0 mi East 5.8 mph - N/A   Clear
11:53 PM 30.0 °F 23.2 °F 14.0 °F 51% 29.99 in 10.0 mi NNE 6.9 mph - N/A   Clear